Home   Weather   Keratsini   Past weeks

Flag for Greece Past Weather in Keratsini, Greece — Yesterday and Last 2 Weeks

Now
81 °F

Sunny.


Feels Like: 79 °F
Forecast: 56 / 83 °F
Wind: 8 mph from Southwest

Location: Elefsis Airport

Current Time: Sep 29, 2016 at 4:35:59 PM

Latest Report: Sep 29, 2016 at 3:50 PM


Visibility: 10 mi

Pressure: 30.18 "Hg

Humidity: 24%

Dew Point: 41 °F

Location of KeratsiniLocation

Past Weather in Keratsini — Graph

°F

Keratsini Temperature Yesterday

Maximum temperature yesterday: 79 °F (at 1:50 PM)
Minimum temperature yesterday: 59 °F (at 1:50 AM)
Average temperature yesterday: 69 °F

High & Low Weather Summary for the Past Weeks

 TemperatureHumidityPressure
High95 °F (Sep 18, 1:50 PM)88% (Sep 22, 1:20 AM)30.33 "Hg (Sep 22, 1:20 AM)
Low59 °F (Sep 23, 11:50 PM)18% (Sep 15, 3:50 PM)29.71 "Hg (Sep 20, 4:20 AM)
Average73 °F47%30.02 "Hg
* Reported Sep 14 3:20 PM — Sep 29 3:20 PM, Keratsini, Weather by CustomWeather, © 2016

Note: Actual official high and low records may vary slightly from our data, if they occured in-between our weather recording intervals... More about our weather records

Advertising

Keratsini Weather History for the Previous 24 Hours

Scroll right to see more
 ConditionsComfort  
Time TempWeatherWind HumidityBarometerVisibility
3:20 PM
Thu, Sep 29
81 °FSunny.8 mph26%30.18 "Hg10 mi
2:50 PM81 °FSunny.7 mph26%30.18 "Hg10 mi
2:20 PM81 °FSunny.6 mph26%30.21 "Hg10 mi
1:20 PM81 °FSunny.6 mph24%30.24 "Hg10 mi
12:50 PM79 °FSunny.8 mph26%30.24 "Hg10 mi
12:20 PM79 °FSunny.8 mph28%30.27 "Hg10 mi
11:50 AM77 °FSunny.8 mph28%30.27 "Hg10 mi
11:20 AM77 °FSunny.6 mph28%30.27 "Hg10 mi
10:50 AM75 °FSunny.7 mph31%30.27 "Hg10 mi
10:20 AM73 °FSunny.9 mph33%30.27 "Hg10 mi
9:50 AM72 °FSunny.8 mph38%30.27 "Hg10 mi
9:20 AM70 °FSunny.9 mph40%30.27 "Hg10 mi
8:50 AM68 °FSunny.8 mph46%30.27 "Hg10 mi
8:20 AM66 °FSunny.7 mph49%30.27 "Hg10 mi
7:50 AM64 °FSunny.8 mph52%30.27 "Hg10 mi
7:20 AM64 °FSunny.8 mph52%30.27 "Hg10 mi
6:50 AM64 °FClear.9 mph56%30.27 "Hg10 mi
6:20 AM64 °FClear.9 mph56%30.27 "Hg10 mi
5:50 AM64 °FPassing clouds.7 mph52%30.27 "HgN/A
5:20 AM64 °FPassing clouds.9 mph56%30.30 "HgN/A
4:50 AM64 °FPassing clouds.3 mph56%30.30 "HgN/A
3:50 AM64 °FPassing clouds.7 mph56%30.30 "HgN/A
3:20 AM63 °FClear.No wind77%30.30 "Hg10 mi
2:50 AM64 °FPassing clouds.7 mph52%30.30 "HgN/A
2:20 AM64 °FPassing clouds.8 mph56%30.30 "HgN/A
1:20 AM63 °FPassing clouds.8 mph52%30.30 "HgN/A
12:50 AM61 °FPassing clouds.8 mph59%30.30 "HgN/A
11:50 PM
Wed, Sep 28
63 °FPassing clouds.5 mph52%30.30 "HgN/A
11:20 PM64 °FPassing clouds.5 mph46%30.30 "HgN/A
10:50 PM64 °FPassing clouds.5 mph46%30.30 "HgN/A
10:20 PM66 °FPassing clouds.5 mph43%30.30 "HgN/A
9:50 PM66 °FPassing clouds.6 mph49%30.30 "HgN/A
9:20 PM68 °FPassing clouds.7 mph46%30.30 "HgN/A
8:50 PM68 °FPassing clouds.7 mph43%30.30 "HgN/A
8:20 PM70 °FPassing clouds.7 mph40%30.30 "HgN/A
7:50 PM70 °FPassing clouds.9 mph38%30.27 "HgN/A
7:20 PM72 °FPassing clouds.22 mph38%30.27 "HgN/A
6:50 PM73 °FScattered clouds.12 mph31%30.27 "HgN/A
6:20 PM73 °FScattered clouds.12 mph31%30.27 "HgN/A
5:50 PM75 °FScattered clouds.14 mph29%30.27 "HgN/A
5:20 PM77 °FScattered clouds.13 mph30%30.27 "HgN/A
4:50 PM79 °FPassing clouds.13 mph23%30.27 "HgN/A
4:20 PM79 °FPassing clouds.14 mph24%30.27 "HgN/A
Weather by CustomWeather, © 2016

See weather overviewHow to use our weather pages